This is the latest recevied weather packets stored in our database for station/object IU2EVW-3. If no packets are shown the sender has not sent any weather packets the latest 10 day(s).
| Time | Temp. | Humidity | Pressure | Rain* | Wind** | Luminosity | Snow |
|---|---|---|---|---|---|---|---|
| 1777467743 | 21.67° C | 46% | 1016.4 hPa | - | - | - | - |
| 1777466542 | 22.78° C | 45% | 1016.6 hPa | - | - | - | - |
| 1777465341 | 23.33° C | 44% | 1016.7 hPa | - | - | - | - |
| 1777464139 | 21.67° C | 46% | 1016.9 hPa | - | - | - | - |
| 1777462938 | 21.67° C | 47% | 1017.1 hPa | - | - | - | - |
| 1777461737 | 22.22° C | 47% | 1017.1 hPa | - | - | - | - |
| 1777460535 | 21.67° C | 47% | 1017.4 hPa | - | - | - | - |
| 1777459334 | 20.56° C | 49% | 1017.6 hPa | - | - | - | - |
| 1777458133 | 21.11° C | 49% | 1017.6 hPa | - | - | - | - |
| 1777456932 | 21.67° C | 48% | 1017.6 hPa | - | - | - | - |
| 1777455731 | 21.11° C | 48% | 1017.6 hPa | - | - | - | - |
| 1777454530 | 21.67° C | 47% | 1017.7 hPa | - | - | - | - |
| 1777453328 | 20.56° C | 49% | 1017.9 hPa | - | - | - | - |
| 1777452127 | 20° C | 50% | 1017.8 hPa | - | - | - | - |
| 1777450926 | 19.44° C | 51% | 1017.9 hPa | - | - | - | - |
| 1777449725 | 20° C | 51% | 1017.8 hPa | - | - | - | - |
| 1777448523 | 19.44° C | 52% | 1017.8 hPa | - | - | - | - |
| 1777447322 | 18.89° C | 53% | 1017.7 hPa | - | - | - | - |
| 1777446121 | 18.33° C | 55% | 1017.6 hPa | - | - | - | - |
| 1777444920 | 17.78° C | 57% | 1017.6 hPa | - | - | - | - |
| 1777443719 | 17.22° C | 60% | 1017.7 hPa | - | - | - | - |
| 1777442518 | 16.67° C | 63% | 1017.5 hPa | - | - | - | - |
| 1777441316 | 16.11° C | 69% | 1017.4 hPa | - | - | - | - |
| 1777440115 | 15.56° C | 71% | 1017.4 hPa | - | - | - | - |
| 1777438914 | 15.56° C | 75% | 1017.1 hPa | - | - | - | - |
* Rain since midnight (hover to see other rain measurements)
** Current wind speed in m/s (hover to see current wind gust speed)